Location: Wawayanda State Park
(41.1833°N, 74.4333°W)
Time: 04:58:43
(UTC-04:00)

RESURS DK-1 - Visible Passes

Search period start: 20 October 2017 00:00
Search period end: 30 October 2017 00:00
Orbit: 557 x 563 km, 69.9° (Epoch: 19 October)

Date Brightness Start Highest point End Pass type
(mag) Time Alt. Az. Time Alt. Az. Time Alt. Az.
20 Oct 4.3 19:35:17 10° NW 19:38:56 30° WSW 19:42:33 10° S visible
21 Oct 5.0 19:34:08 10° NW 19:37:23 22° WSW 19:40:36 10° SSW visible
22 Oct 5.5 19:33:10 10° WNW 19:35:48 17° WSW 19:38:26 10° SW visible
23 Oct 5.8 19:32:36 10° WNW 19:34:13 12° WSW 19:35:50 10° SW visible
29 Oct 5.8 06:08:05 10° SE 06:10:03 13° ESE 06:12:02 10° ENE visible
